M I D A S
Marine Information and Data Acquisition System
Tripno 1267 of the Zeeleeuw from 2007-05-04 07:37:53 to 2007-05-04 14:16:29
Back to CruiseResearch ActivitiesStationsMapUnderway DataData graphs

EquipmentUnitsComments
TimeDGPSUTC
LatitudeDGPSDM.mWGS84
LongitudeDGPSDM.mWGS84
SpeedMeteo Stationm/sRelative wind speed
DirectionMeteo StationdegRelative wind direction
TemperatureMeteo Stationdeg CelciusAir temperature
PressureMeteo StationPaAtmospheric pressure
HumidityMeteo Station%Relative humidity
Missing or incorrect values are displayed as -999
Metereological data collected by the RV Zeeleeuw from 2007-05-04 06:54:01 to 2007-05-04 14:28:36
                                                                                    Next 1000 lines
Time Latitude Longitude Speed Direction Temperature Pressure Humidity
2007-05-04 06:54:11 51°13.581 2°56.133 -999 -999 -999 -999 -999
2007-05-04 06:54:16 51°13.581 2°56.133 -999 -999 -999 -999 -999
2007-05-04 06:54:21 51°13.581 2°56.133 -999 -999 -999 -999 -999
2007-05-04 06:54:26 51°13.581 2°56.133 -999 -999 -999 -999 -999
2007-05-04 06:54:32 51°13.581 2°56.133 -999 -999 -999 -999 -999
2007-05-04 06:54:36 51°13.58 2°56.133 -999 -999 -999 -999 -999
2007-05-04 06:54:41 51°13.58 2°56.133 -999 -999 -999 -999 -999
2007-05-04 06:54:46 51°13.58 2°56.133 -999 -999 -999 -999 -999
2007-05-04 06:54:51 51°13.58 2°56.133 -999 -999 -999 -999 -999
2007-05-04 06:54:56 51°13.58 2°56.133 -999 -999 -999 -999 -999
2007-05-04 06:55:01 51°13.581 2°56.133 -999 -999 -999 -999 -999
2007-05-04 06:55:06 51°13.581 2°56.133 -999 -999 -999 -999 -999
2007-05-04 06:55:11 51°13.581 2°56.133 -999 -999 -999 -999 -999
2007-05-04 06:55:16 51°13.581 2°56.133 -999 -999 -999 -999 -999
2007-05-04 06:55:21 51°13.581 2°56.133 -999 -999 -999 -999 -999
2007-05-04 06:55:26 51°13.581 2°56.133 -999 -999 -999 -999 -999
2007-05-04 06:55:32 51°13.581 2°56.133 -999 -999 -999 -999 -999
2007-05-04 06:55:36 51°13.581 2°56.133 -999 -999 -999 -999 -999
2007-05-04 06:55:42 51°13.581 2°56.133 -999 -999 -999 -999 -999
2007-05-04 06:55:46 51°13.581 2°56.133 -999 -999 -999 -999 -999
2007-05-04 06:55:51 51°13.581 2°56.134 -999 -999 -999 -999 -999
2007-05-04 06:55:56 51°13.581 2°56.134 -999 -999 -999 -999 -999
2007-05-04 06:56:01 51°13.581 2°56.134 -999 -999 -999 -999 -999
2007-05-04 06:56:06 51°13.58 2°56.133 -999 -999 -999 -999 -999
2007-05-04 06:56:11 51°13.58 2°56.133 -999 -999 -999 -999 -999
2007-05-04 06:56:16 51°13.58 2°56.133 -999 -999 -999 -999 -999
2007-05-04 06:56:21 51°13.58 2°56.133 -999 -999 -999 -999 -999
2007-05-04 06:56:26 51°13.58 2°56.133 -999 -999 -999 -999 -999
2007-05-04 06:56:32 51°13.58 2°56.133 -999 -999 -999 -999 -999
2007-05-04 06:56:36 51°13.58 2°56.133 -999 -999 -999 -999 -999
2007-05-04 06:56:41 51°13.58 2°56.133 -999 -999 -999 -999 -999
2007-05-04 06:56:46 51°13.58 2°56.132 -999 -999 -999 -999 -999
2007-05-04 06:56:51 51°13.58 2°56.132 -999 -999 -999 -999 -999
2007-05-04 06:56:56 51°13.581 2°56.13 -999 -999 -999 -999 -999
2007-05-04 06:57:01 51°13.581 2°56.128 -999 -999 -999 -999 -999
2007-05-04 06:57:06 51°13.582 2°56.125 -999 -999 -999 -999 -999
2007-05-04 06:57:11 51°13.583 2°56.121 -999 -999 -999 -999 -999
2007-05-04 06:57:16 51°13.584 2°56.117 -999 -999 -999 -999 -999
2007-05-04 06:57:21 51°13.585 2°56.113 -999 -999 -999 -999 -999
2007-05-04 06:57:26 51°13.587 2°56.109 -999 -999 -999 -999 -999
2007-05-04 06:57:32 51°13.588 2°56.104 -999 -999 -999 -999 -999
2007-05-04 06:57:36 51°13.589 2°56.1 -999 -999 -999 -999 -999
2007-05-04 06:57:42 51°13.591 2°56.094 -999 -999 -999 -999 -999
2007-05-04 06:57:46 51°13.592 2°56.09 -999 -999 -999 -999 -999
2007-05-04 06:57:51 51°13.594 2°56.085 -999 -999 -999 -999 -999
2007-05-04 06:57:56 51°13.596 2°56.079 -999 -999 -999 -999 -999
2007-05-04 06:58:01 51°13.597 2°56.074 -999 -999 -999 -999 -999
2007-05-04 06:58:06 51°13.599 2°56.068 -999 -999 -999 -999 -999
2007-05-04 06:58:11 51°13.601 2°56.062 -999 -999 -999 -999 -999
2007-05-04 06:58:16 51°13.602 2°56.055 -999 -999 -999 -999 -999
2007-05-04 06:58:21 51°13.604 2°56.049 -999 -999 -999 -999 -999
2007-05-04 06:58:26 51°13.606 2°56.043 -999 -999 -999 -999 -999
2007-05-04 06:58:32 51°13.608 2°56.035 -999 -999 -999 -999 -999
2007-05-04 06:58:36 51°13.609 2°56.031 -999 -999 -999 -999 -999
2007-05-04 06:58:42 51°13.611 2°56.024 -999 -999 -999 -999 -999
2007-05-04 06:58:46 51°13.613 2°56.019 -999 -999 -999 -999 -999
2007-05-04 06:58:51 51°13.614 2°56.013 -999 -999 -999 -999 -999
2007-05-04 06:58:57 51°13.616 2°56.007 -999 -999 -999 -999 -999
2007-05-04 06:59:01 51°13.618 2°56.003 -999 -999 -999 -999 -999
2007-05-04 06:59:06 51°13.619 2°55.998 -999 -999 -999 -999 -999
2007-05-04 06:59:11 51°13.621 2°55.994 -999 -999 -999 -999 -999
2007-05-04 06:59:16 51°13.622 2°55.99 -999 -999 -999 -999 -999
2007-05-04 06:59:21 51°13.623 2°55.986 -999 -999 -999 -999 -999
2007-05-04 06:59:26 51°13.624 2°55.983 -999 -999 -999 -999 -999
2007-05-04 06:59:32 51°13.625 2°55.98 -999 -999 -999 -999 -999
2007-05-04 06:59:36 51°13.626 2°55.979 -999 -999 -999 -999 -999
2007-05-04 06:59:42 51°13.626 2°55.976 -999 -999 -999 -999 -999
2007-05-04 06:59:46 51°13.627 2°55.974 -999 -999 -999 -999 -999
2007-05-04 06:59:51 51°13.628 2°55.971 -999 -999 -999 -999 -999
2007-05-04 06:59:57 51°13.63 2°55.966 -999 -999 -999 -999 -999
2007-05-04 07:00:01 51°13.632 2°55.962 -999 -999 -999 -999 -999
2007-05-04 07:00:07 51°13.634 2°55.956 -999 -999 -999 -999 -999
2007-05-04 07:00:11 51°13.636 2°55.952 -999 -999 -999 -999 -999
2007-05-04 07:00:16 51°13.638 2°55.947 -999 -999 -999 -999 -999
2007-05-04 07:00:21 51°13.64 2°55.942 -999 -999 -999 -999 -999
2007-05-04 07:00:26 51°13.643 2°55.937 -999 -999 -999 -999 -999
2007-05-04 07:00:31 51°13.644 2°55.932 -999 -999 -999 -999 -999
2007-05-04 07:00:36 51°13.646 2°55.928 -999 -999 -999 -999 -999
2007-05-04 07:00:41 51°13.647 2°55.925 -999 -999 -999 -999 -999
2007-05-04 07:00:46 51°13.647 2°55.924 -999 -999 -999 -999 -999
2007-05-04 07:00:51 51°13.647 2°55.923 -999 -999 -999 -999 -999
2007-05-04 07:00:56 51°13.648 2°55.922 -999 -999 -999 -999 -999
2007-05-04 07:01:01 51°13.647 2°55.922 -999 -999 -999 -999 -999
2007-05-04 07:01:06 51°13.647 2°55.923 -999 -999 -999 -999 -999
2007-05-04 07:01:11 51°13.647 2°55.923 -999 -999 -999 -999 -999
2007-05-04 07:01:16 51°13.647 2°55.925 -999 -999 -999 -999 -999
2007-05-04 07:01:21 51°13.646 2°55.926 -999 -999 -999 -999 -999
2007-05-04 07:01:26 51°13.646 2°55.929 -999 -999 -999 -999 -999
2007-05-04 07:01:32 51°13.645 2°55.932 -999 -999 -999 -999 -999
2007-05-04 07:01:36 51°13.644 2°55.934 -999 -999 -999 -999 -999
2007-05-04 07:01:41 51°13.644 2°55.936 -999 -999 -999 -999 -999
2007-05-04 07:01:46 51°13.643 2°55.939 -999 -999 -999 -999 -999
2007-05-04 07:01:51 51°13.642 2°55.942 -999 -999 -999 -999 -999
2007-05-04 07:01:57 51°13.642 2°55.946 -999 -999 -999 -999 -999
2007-05-04 07:02:01 51°13.641 2°55.949 -999 -999 -999 -999 -999
2007-05-04 07:02:06 51°13.641 2°55.953 -999 -999 -999 -999 -999
2007-05-04 07:02:11 51°13.64 2°55.956 -999 -999 -999 -999 -999
2007-05-04 07:02:16 51°13.64 2°55.96 -999 -999 -999 -999 -999
2007-05-04 07:02:21 51°13.639 2°55.964 -999 -999 -999 -999 -999
2007-05-04 07:02:26 51°13.639 2°55.968 -999 -999 -999 -999 -999
2007-05-04 07:02:31 51°13.638 2°55.972 -999 -999 -999 -999 -999
2007-05-04 07:02:36 51°13.638 2°55.977 -999 -999 -999 -999 -999
2007-05-04 07:02:42 51°13.637 2°55.982 -999 -999 -999 -999 -999
2007-05-04 07:02:46 51°13.637 2°55.986 -999 -999 -999 -999 -999
2007-05-04 07:02:51 51°13.637 2°55.99 -999 -999 -999 -999 -999
2007-05-04 07:02:57 51°13.636 2°55.995 -999 -999 -999 -999 -999
2007-05-04 07:03:01 51°13.636 2°55.998 -999 -999 -999 -999 -999
2007-05-04 07:03:07 51°13.635 2°56.002 -999 -999 -999 -999 -999
2007-05-04 07:03:11 51°13.635 2°56.005 -999 -999 -999 -999 -999
2007-05-04 07:03:16 51°13.634 2°56.008 -999 -999 -999 -999 -999
2007-05-04 07:03:21 51°13.634 2°56.012 -999 -999 -999 -999 -999
2007-05-04 07:03:26 51°13.633 2°56.015 -999 -999 -999 -999 -999
2007-05-04 07:03:31 51°13.633 2°56.017 -999 -999 -999 -999 -999
2007-05-04 07:03:36 51°13.633 2°56.02 -999 -999 -999 -999 -999
2007-05-04 07:03:41 51°13.632 2°56.021 -999 -999 -999 -999 -999
2007-05-04 07:03:46 51°13.632 2°56.022 -999 -999 -999 -999 -999
2007-05-04 07:03:51 51°13.632 2°56.023 -999 -999 -999 -999 -999
2007-05-04 07:03:56 51°13.632 2°56.024 -999 -999 -999 -999 -999
2007-05-04 07:04:01 51°13.632 2°56.024 -999 -999 -999 -999 -999
2007-05-04 07:04:07 51°13.632 2°56.025 -999 -999 -999 -999 -999
2007-05-04 07:04:11 51°13.632 2°56.025 -999 -999 -999 -999 -999
2007-05-04 07:04:16 51°13.632 2°56.025 -999 -999 -999 -999 -999
2007-05-04 07:04:21 51°13.632 2°56.025 -999 -999 -999 -999 -999
2007-05-04 07:04:26 51°13.632 2°56.025 -999 -999 -999 -999 -999
2007-05-04 07:04:32 51°13.632 2°56.025 -999 -999 -999 -999 -999
2007-05-04 07:04:36 51°13.632 2°56.025 -999 -999 -999 -999 -999
2007-05-04 07:04:41 51°13.632 2°56.025 -999 -999 -999 -999 -999
2007-05-04 07:04:46 51°13.632 2°56.025 -999 -999 -999 -999 -999
2007-05-04 07:04:51 51°13.632 2°56.025 -999 -999 -999 -999 -999
2007-05-04 07:04:56 51°13.632 2°56.025 -999 -999 -999 -999 -999
2007-05-04 07:05:01 51°13.632 2°56.025 -999 -999 -999 -999 -999
2007-05-04 07:05:06 51°13.632 2°56.025 -999 -999 -999 -999 -999
2007-05-04 07:05:11 51°13.633 2°56.025 -999 -999 -999 -999 -999
2007-05-04 07:05:16 51°13.633 2°56.025 -999 -999 -999 -999 -999
2007-05-04 07:05:21 51°13.633 2°56.025 -999 -999 -999 -999 -999
2007-05-04 07:05:26 51°13.633 2°56.025 -999 -999 -999 -999 -999
2007-05-04 07:05:31 51°13.633 2°56.025 -999 -999 -999 -999 -999
2007-05-04 07:05:36 51°13.633 2°56.025 -999 -999 -999 -999 -999
2007-05-04 07:05:41 51°13.633 2°56.025 -999 -999 -999 -999 -999
2007-05-04 07:05:46 51°13.633 2°56.025 -999 -999 -999 -999 -999
2007-05-04 07:05:51 51°13.633 2°56.025 -999 -999 -999 -999 -999
2007-05-04 07:05:56 51°13.633 2°56.025 -999 -999 -999 -999 -999
2007-05-04 07:06:01 51°13.633 2°56.025 -999 -999 -999 -999 -999
2007-05-04 07:06:06 51°13.633 2°56.025 -999 -999 -999 -999 -999
2007-05-04 07:06:12 51°13.633 2°56.025 -999 -999 -999 -999 -999
2007-05-04 07:06:16 51°13.633 2°56.025 -999 -999 -999 -999 -999
2007-05-04 07:06:21 51°13.633 2°56.025 -999 -999 -999 -999 -999
2007-05-04 07:06:26 51°13.633 2°56.024 -999 -999 -999 -999 -999
2007-05-04 07:06:31 51°13.633 2°56.024 -999 -999 -999 -999 -999
2007-05-04 07:06:37 51°13.633 2°56.024 -999 -999 -999 -999 -999
2007-05-04 07:06:41 51°13.633 2°56.024 -999 -999 -999 -999 -999
2007-05-04 07:06:46 51°13.633 2°56.024 -999 -999 -999 -999 -999
2007-05-04 07:06:51 51°13.633 2°56.024 -999 -999 -999 -999 -999
2007-05-04 07:06:56 51°13.634 2°56.024 -999 -999 -999 -999 -999
2007-05-04 07:07:01 51°13.633 2°56.024 -999 -999 -999 -999 -999
2007-05-04 07:07:06 51°13.633 2°56.024 -999 -999 -999 -999 -999
2007-05-04 07:07:12 51°13.633 2°56.024 -999 -999 -999 -999 -999
2007-05-04 07:07:16 51°13.633 2°56.024 -999 -999 -999 -999 -999
2007-05-04 07:07:21 51°13.633 2°56.024 -999 -999 -999 -999 -999
2007-05-04 07:07:26 51°13.634 2°56.024 -999 -999 -999 -999 -999
2007-05-04 07:07:31 51°13.634 2°56.024 -999 -999 -999 -999 -999
2007-05-04 07:07:37 51°13.634 2°56.025 -999 -999 -999 -999 -999
2007-05-04 07:07:41 51°13.634 2°56.025 -999 -999 -999 -999 -999
2007-05-04 07:07:46 51°13.634 2°56.025 -999 -999 -999 -999 -999
2007-05-04 07:07:51 51°13.634 2°56.025 -999 -999 -999 -999 -999
2007-05-04 07:07:56 51°13.634 2°56.025 -999 -999 -999 -999 -999
2007-05-04 07:08:01 51°13.634 2°56.025 -999 -999 -999 -999 -999
2007-05-04 07:08:06 51°13.634 2°56.024 -999 -999 -999 -999 -999
2007-05-04 07:08:12 51°13.634 2°56.024 -999 -999 -999 -999 -999
2007-05-04 07:08:16 51°13.634 2°56.024 -999 -999 -999 -999 -999
2007-05-04 07:08:22 51°13.634 2°56.024 -999 -999 -999 -999 -999
2007-05-04 07:08:26 51°13.634 2°56.024 -999 -999 -999 -999 -999
2007-05-04 07:08:31 51°13.634 2°56.024 -999 -999 -999 -999 -999
2007-05-04 07:08:37 51°13.634 2°56.024 -999 -999 -999 -999 -999
2007-05-04 07:08:41 51°13.634 2°56.024 -999 -999 -999 -999 -999
2007-05-04 07:08:46 51°13.634 2°56.024 -999 -999 -999 -999 -999
2007-05-04 07:08:51 51°13.634 2°56.024 -999 -999 -999 -999 -999
2007-05-04 07:08:56 51°13.634 2°56.024 -999 -999 -999 -999 -999
2007-05-04 07:09:01 51°13.634 2°56.025 -999 -999 -999 -999 -999
2007-05-04 07:09:06 51°13.634 2°56.025 -999 -999 -999 -999 -999
2007-05-04 07:09:12 51°13.634 2°56.025 -999 -999 -999 -999 -999
2007-05-04 07:09:16 51°13.634 2°56.025 -999 -999 -999 -999 -999
2007-05-04 07:09:22 51°13.634 2°56.025 -999 -999 -999 -999 -999
2007-05-04 07:09:26 51°13.634 2°56.025 -999 -999 -999 -999 -999
2007-05-04 07:09:31 51°13.634 2°56.025 -999 -999 -999 -999 -999
2007-05-04 07:09:37 51°13.634 2°56.025 -999 -999 -999 -999 -999
2007-05-04 07:09:41 51°13.634 2°56.025 -999 -999 -999 -999 -999
2007-05-04 07:09:46 51°13.633 2°56.025 -999 -999 -999 -999 -999
2007-05-04 07:09:51 51°13.633 2°56.025 -999 -999 -999 -999 -999
2007-05-04 07:09:56 51°13.633 2°56.025 -999 -999 -999 -999 -999
2007-05-04 07:10:01 51°13.633 2°56.025 -999 -999 -999 -999 -999
2007-05-04 07:10:06 51°13.633 2°56.025 -999 -999 -999 -999 -999
2007-05-04 07:10:11 51°13.634 2°56.025 -999 -999 -999 -999 -999
2007-05-04 07:10:16 51°13.634 2°56.025 -999 -999 -999 -999 -999
2007-05-04 07:10:22 51°13.634 2°56.025 -999 -999 -999 -999 -999
2007-05-04 07:10:26 51°13.634 2°56.025 -999 -999 -999 -999 -999
2007-05-04 07:10:31 51°13.634 2°56.025 -999 -999 -999 -999 -999
2007-05-04 07:10:37 51°13.634 2°56.025 -999 -999 -999 -999 -999
2007-05-04 07:10:41 51°13.634 2°56.025 -999 -999 -999 -999 -999
2007-05-04 07:10:46 51°13.634 2°56.025 -999 -999 -999 -999 -999
2007-05-04 07:10:51 51°13.634 2°56.025 -999 -999 -999 -999 -999
2007-05-04 07:10:56 51°13.634 2°56.025 -999 -999 -999 -999 -999
2007-05-04 07:11:01 51°13.634 2°56.025 -999 -999 -999 -999 -999
2007-05-04 07:11:06 51°13.634 2°56.025 -999 -999 -999 -999 -999
2007-05-04 07:11:11 51°13.634 2°56.025 -999 -999 -999 -999 -999
2007-05-04 07:11:16 51°13.634 2°56.025 -999 -999 -999 -999 -999
2007-05-04 07:11:21 51°13.634 2°56.025 -999 -999 -999 -999 -999
2007-05-04 07:11:26 51°13.633 2°56.025 -999 -999 -999 -999 -999
2007-05-04 07:11:31 51°13.633 2°56.025 -999 -999 -999 -999 -999
2007-05-04 07:11:36 51°13.633 2°56.024 -999 -999 -999 -999 -999
2007-05-04 07:11:41 51°13.633 2°56.024 -999 -999 -999 -999 -999
2007-05-04 07:11:46 51°13.633 2°56.024 -999 -999 -999 -999 -999
2007-05-04 07:11:51 51°13.633 2°56.024 -999 -999 -999 -999 -999
2007-05-04 07:11:56 51°13.633 2°56.024 -999 -999 -999 -999 -999
2007-05-04 07:12:01 51°13.633 2°56.024 -999 -999 -999 -999 -999
2007-05-04 07:12:06 51°13.633 2°56.024 -999 -999 -999 -999 -999
2007-05-04 07:12:11 51°13.633 2°56.024 -999 -999 -999 -999 -999
2007-05-04 07:12:16 51°13.633 2°56.024 -999 -999 -999 -999 -999
2007-05-04 07:12:21 51°13.633 2°56.024 -999 -999 -999 -999 -999
2007-05-04 07:12:26 51°13.633 2°56.024 -999 -999 -999 -999 -999
2007-05-04 07:12:31 51°13.633 2°56.024 -999 -999 -999 -999 -999
2007-05-04 07:12:36 51°13.633 2°56.024 -999 -999 -999 -999 -999
2007-05-04 07:12:41 51°13.633 2°56.024 -999 -999 -999 -999 -999
2007-05-04 07:12:46 51°13.633 2°56.024 -999 -999 -999 -999 -999
2007-05-04 07:12:51 51°13.633 2°56.024 -999 -999 -999 -999 -999
2007-05-04 07:12:56 51°13.633 2°56.024 -999 -999 -999 -999 -999
2007-05-04 07:13:01 51°13.633 2°56.024 -999 -999 -999 -999 -999
2007-05-04 07:13:06 51°13.633 2°56.024 -999 -999 -999 -999 -999
2007-05-04 07:13:11 51°13.633 2°56.023 -999 -999 -999 -999 -999
2007-05-04 07:13:16 51°13.633 2°56.023 -999 -999 -999 -999 -999
2007-05-04 07:13:21 51°13.633 2°56.023 -999 -999 -999 -999 -999
2007-05-04 07:13:26 51°13.633 2°56.023 -999 -999 -999 -999 -999
2007-05-04 07:13:31 51°13.633 2°56.023 -999 -999 -999 -999 -999
2007-05-04 07:13:36 51°13.633 2°56.024 -999 -999 -999 -999 -999
2007-05-04 07:13:41 51°13.633 2°56.024 -999 -999 -999 -999 -999
2007-05-04 07:13:46 51°13.633 2°56.024 -999 -999 -999 -999 -999
2007-05-04 07:13:51 51°13.633 2°56.024 -999 -999 -999 -999 -999
2007-05-04 07:13:56 51°13.633 2°56.024 -999 -999 -999 -999 -999
2007-05-04 07:14:01 51°13.633 2°56.024 -999 -999 -999 -999 -999
2007-05-04 07:14:06 51°13.633 2°56.024 -999 -999 -999 -999 -999
2007-05-04 07:14:11 51°13.633 2°56.024 -999 -999 -999 -999 -999
2007-05-04 07:14:16 51°13.633 2°56.024 -999 -999 -999 -999 -999
2007-05-04 07:14:21 51°13.633 2°56.024 -999 -999 -999 -999 -999
2007-05-04 07:14:26 51°13.633 2°56.024 -999 -999 -999 -999 -999
2007-05-04 07:14:31 51°13.633 2°56.024 -999 -999 -999 -999 -999
2007-05-04 07:14:36 51°13.633 2°56.024 -999 -999 -999 -999 -999
2007-05-04 07:14:41 51°13.633 2°56.024 -999 -999 -999 -999 -999
2007-05-04 07:14:46 51°13.633 2°56.024 -999 -999 -999 -999 -999
2007-05-04 07:14:51 51°13.633 2°56.024 -999 -999 -999 -999 -999
2007-05-04 07:14:56 51°13.633 2°56.024 -999 -999 -999 -999 -999
2007-05-04 07:15:01 51°13.633 2°56.024 -999 -999 -999 -999 -999
2007-05-04 07:15:06 51°13.633 2°56.024 -999 -999 -999 -999 -999
2007-05-04 07:15:11 51°13.633 2°56.024 -999 -999 -999 -999 -999
2007-05-04 07:15:16 51°13.633 2°56.024 -999 -999 -999 -999 -999
2007-05-04 07:15:21 51°13.633 2°56.024 -999 -999 -999 -999 -999
2007-05-04 07:15:26 51°13.633 2°56.023 -999 -999 -999 -999 -999
2007-05-04 07:15:31 51°13.633 2°56.023 -999 -999 -999 -999 -999
2007-05-04 07:15:36 51°13.633 2°56.023 -999 -999 -999 -999 -999
2007-05-04 07:15:41 51°13.633 2°56.023 -999 -999 -999 -999 -999
2007-05-04 07:15:46 51°13.633 2°56.023 -999 -999 -999 -999 -999
2007-05-04 07:15:51 51°13.633 2°56.024 -999 -999 -999 -999 -999
2007-05-04 07:15:56 51°13.633 2°56.024 -999 -999 -999 -999 -999
2007-05-04 07:16:01 51°13.633 2°56.024 -999 -999 -999 -999 -999
2007-05-04 07:16:06 51°13.633 2°56.024 -999 -999 -999 -999 -999
2007-05-04 07:16:11 51°13.633 2°56.024 -999 -999 -999 -999 -999
2007-05-04 07:16:16 51°13.633 2°56.024 -999 -999 -999 -999 -999
2007-05-04 07:16:21 51°13.633 2°56.024 -999 -999 -999 -999 -999
2007-05-04 07:16:26 51°13.633 2°56.024 -999 -999 -999 -999 -999
2007-05-04 07:16:31 51°13.633 2°56.024 -999 -999 -999 -999 -999
2007-05-04 07:16:36 51°13.633 2°56.024 -999 -999 -999 -999 -999
2007-05-04 07:16:41 51°13.633 2°56.024 -999 -999 -999 -999 -999
2007-05-04 07:16:46 51°13.633 2°56.024 -999 -999 -999 -999 -999
2007-05-04 07:16:51 51°13.633 2°56.024 -999 -999 -999 -999 -999
2007-05-04 07:16:56 51°13.633 2°56.024 -999 -999 -999 -999 -999
2007-05-04 07:17:01 51°13.633 2°56.024 -999 -999 -999 -999 -999
2007-05-04 07:17:06 51°13.633 2°56.024 -999 -999 -999 -999 -999
2007-05-04 07:17:11 51°13.633 2°56.024 -999 -999 -999 -999 -999
2007-05-04 07:17:16 51°13.633 2°56.024 -999 -999 -999 -999 -999
2007-05-04 07:17:21 51°13.633 2°56.024 -999 -999 -999 -999 -999
2007-05-04 07:17:26 51°13.633 2°56.024 -999 -999 -999 -999 -999
2007-05-04 07:17:31 51°13.633 2°56.024 -999 -999 -999 -999 -999
2007-05-04 07:17:36 51°13.633 2°56.024 -999 -999 -999 -999 -999
2007-05-04 07:17:41 51°13.633 2°56.024 -999 -999 -999 -999 -999
2007-05-04 07:17:46 51°13.633 2°56.024 -999 -999 -999 -999 -999
2007-05-04 07:17:51 51°13.633 2°56.024 -999 -999 -999 -999 -999
2007-05-04 07:17:56 51°13.633 2°56.024 -999 -999 -999 -999 -999
2007-05-04 07:18:01 51°13.633 2°56.024 -999 -999 -999 -999 -999
2007-05-04 07:18:06 51°13.633 2°56.024 -999 -999 -999 -999 -999
2007-05-04 07:18:11 51°13.633 2°56.024 -999 -999 -999 -999 -999
2007-05-04 07:18:16 51°13.633 2°56.024 -999 -999 -999 -999 -999
2007-05-04 07:18:21 51°13.633 2°56.024 -999 -999 -999 -999 -999
2007-05-04 07:18:26 51°13.633 2°56.024 -999 -999 -999 -999 -999
2007-05-04 07:18:31 51°13.633 2°56.024 -999 -999 -999 -999 -999
2007-05-04 07:18:36 51°13.634 2°56.024 -999 -999 -999 -999 -999
2007-05-04 07:18:42 51°13.634 2°56.025 -999 -999 -999 -999 -999
2007-05-04 07:18:46 51°13.634 2°56.025 -999 -999 -999 -999 -999
2007-05-04 07:18:51 51°13.634 2°56.025 -999 -999 -999 -999 -999
2007-05-04 07:18:56 51°13.634 2°56.025 -999 -999 -999 -999 -999
2007-05-04 07:19:01 51°13.634 2°56.025 -999 -999 -999 -999 -999
2007-05-04 07:19:06 51°13.634 2°56.025 -999 -999 -999 -999 -999
2007-05-04 07:19:11 51°13.634 2°56.025 -999 -999 -999 -999 -999
2007-05-04 07:19:16 51°13.634 2°56.025 -999 -999 -999 -999 -999
2007-05-04 07:19:21 51°13.634 2°56.025 -999 -999 -999 -999 -999
2007-05-04 07:19:26 51°13.634 2°56.025 -999 -999 -999 -999 -999
2007-05-04 07:19:31 51°13.633 2°56.025 -999 -999 -999 -999 -999
2007-05-04 07:19:36 51°13.633 2°56.025 -999 -999 -999 -999 -999
2007-05-04 07:19:41 51°13.633 2°56.025 -999 -999 -999 -999 -999
2007-05-04 07:19:46 51°13.633 2°56.025 -999 -999 -999 -999 -999
2007-05-04 07:19:51 51°13.633 2°56.025 -999 -999 -999 -999 -999
2007-05-04 07:19:56 51°13.633 2°56.025 -999 -999 -999 -999 -999
2007-05-04 07:20:01 51°13.633 2°56.025 -999 -999 -999 -999 -999
2007-05-04 07:20:06 51°13.633 2°56.025 -999 -999 -999 -999 -999
2007-05-04 07:20:11 51°13.634 2°56.025 -999 -999 -999 -999 -999
2007-05-04 07:20:16 51°13.634 2°56.025 -999 -999 -999 -999 -999
2007-05-04 07:20:21 51°13.634 2°56.025 -999 -999 -999 -999 -999
2007-05-04 07:20:26 51°13.634 2°56.025 -999 -999 -999 -999 -999
2007-05-04 07:20:31 51°13.634 2°56.025 -999 -999 -999 -999 -999
2007-05-04 07:20:36 51°13.634 2°56.025 -999 -999 -999 -999 -999
2007-05-04 07:20:41 51°13.634 2°56.025 -999 -999 -999 -999 -999
2007-05-04 07:20:46 51°13.634 2°56.025 -999 -999 -999 -999 -999
2007-05-04 07:20:51 51°13.634 2°56.025 -999 -999 -999 -999 -999
2007-05-04 07:20:56 51°13.634 2°56.025 -999 -999 -999 -999 -999
2007-05-04 07:21:01 51°13.634 2°56.026 -999 -999 -999 -999 -999
2007-05-04 07:21:06 51°13.634 2°56.026 -999 -999 -999 -999 -999
2007-05-04 07:21:11 51°13.634 2°56.025 -999 -999 -999 -999 -999
2007-05-04 07:21:16 51°13.634 2°56.025 -999 -999 -999 -999 -999
2007-05-04 07:21:21 51°13.634 2°56.025 -999 -999 -999 -999 -999
2007-05-04 07:21:26 51°13.634 2°56.025 -999 -999 -999 -999 -999
2007-05-04 07:21:31 51°13.634 2°56.025 -999 -999 -999 -999 -999
2007-05-04 07:21:36 51°13.634 2°56.025 -999 -999 -999 -999 -999
2007-05-04 07:21:41 51°13.635 2°56.025 -999 -999 -999 -999 -999
2007-05-04 07:21:46 51°13.635 2°56.025 -999 -999 -999 -999 -999
2007-05-04 07:21:51 51°13.635 2°56.025 -999 -999 -999 -999 -999
2007-05-04 07:21:56 51°13.635 2°56.025 -999 -999 -999 -999 -999
2007-05-04 07:22:01 51°13.635 2°56.025 -999 -999 -999 -999 -999
2007-05-04 07:22:06 51°13.635 2°56.025 -999 -999 -999 -999 -999
2007-05-04 07:22:11 51°13.635 2°56.025 -999 -999 -999 -999 -999
2007-05-04 07:22:16 51°13.635 2°56.025 -999 -999 -999 -999 -999
2007-05-04 07:22:21 51°13.635 2°56.025 -999 -999 -999 -999 -999
2007-05-04 07:22:26 51°13.635 2°56.025 -999 -999 -999 -999 -999
2007-05-04 07:22:31 51°13.635 2°56.025 -999 -999 -999 -999 -999
2007-05-04 07:22:36 51°13.635 2°56.025 -999 -999 -999 -999 -999
2007-05-04 07:22:41 51°13.635 2°56.025 -999 -999 -999 -999 -999
2007-05-04 07:22:46 51°13.635 2°56.025 -999 -999 -999 -999 -999
2007-05-04 07:22:51 51°13.635 2°56.025 -999 -999 -999 -999 -999
2007-05-04 07:22:56 51°13.635 2°56.025 -999 -999 -999 -999 -999
2007-05-04 07:23:01 51°13.635 2°56.025 -999 -999 -999 -999 -999
2007-05-04 07:23:06 51°13.635 2°56.025 -999 -999 -999 -999 -999
2007-05-04 07:23:11 51°13.635 2°56.025 -999 -999 -999 -999 -999
2007-05-04 07:23:16 51°13.635 2°56.025 -999 -999 -999 -999 -999
2007-05-04 07:23:21 51°13.635 2°56.025 -999 -999 -999 -999 -999
2007-05-04 07:23:26 51°13.635 2°56.025 -999 -999 -999 -999 -999
2007-05-04 07:23:31 51°13.635 2°56.025 -999 -999 -999 -999 -999
2007-05-04 07:23:36 51°13.635 2°56.025 -999 -999 -999 -999 -999
2007-05-04 07:23:40 51°13.635 2°56.025 -999 -999 -999 -999 -999
2007-05-04 07:23:45 51°13.635 2°56.025 -999 -999 -999 -999 -999
2007-05-04 07:23:50 51°13.635 2°56.025 -999 -999 -999 -999 -999
2007-05-04 07:23:56 51°13.635 2°56.025 -999 -999 -999 -999 -999
2007-05-04 07:24:01 51°13.635 2°56.025 -999 -999 -999 -999 -999
2007-05-04 07:24:06 51°13.635 2°56.025 -999 -999 -999 -999 -999
2007-05-04 07:24:11 51°13.635 2°56.025 -999 -999 -999 -999 -999
2007-05-04 07:24:16 51°13.635 2°56.025 -999 -999 -999 -999 -999
2007-05-04 07:24:21 51°13.635 2°56.025 -999 -999 -999 -999 -999
2007-05-04 07:24:26 51°13.635 2°56.025 -999 -999 -999 -999 -999
2007-05-04 07:24:31 51°13.635 2°56.025 -999 -999 -999 -999 -999
2007-05-04 07:24:36 51°13.635 2°56.025 -999 -999 -999 -999 -999
2007-05-04 07:24:41 51°13.635 2°56.025 -999 -999 -999 -999 -999
2007-05-04 07:24:46 51°13.635 2°56.025 -999 -999 -999 -999 -999
2007-05-04 07:24:51 51°13.635 2°56.025 -999 -999 -999 -999 -999
2007-05-04 07:24:56 51°13.635 2°56.025 -999 -999 -999 -999 -999
2007-05-04 07:25:01 51°13.635 2°56.025 -999 -999 -999 -999 -999
2007-05-04 07:25:06 51°13.636 2°56.025 -999 -999 -999 -999 -999
2007-05-04 07:25:11 51°13.636 2°56.026 -999 -999 -999 -999 -999
2007-05-04 07:25:16 51°13.636 2°56.026 -999 -999 -999 -999 -999
2007-05-04 07:25:21 51°13.636 2°56.026 -999 -999 -999 -999 -999
2007-05-04 07:25:26 51°13.636 2°56.026 -999 -999 -999 -999 -999
2007-05-04 07:25:31 51°13.636 2°56.026 -999 -999 -999 -999 -999
2007-05-04 07:25:36 51°13.636 2°56.026 -999 -999 -999 -999 -999
2007-05-04 07:25:41 51°13.636 2°56.026 -999 -999 -999 -999 -999
2007-05-04 07:25:46 51°13.636 2°56.026 -999 -999 -999 -999 -999
2007-05-04 07:25:51 51°13.635 2°56.026 -999 -999 -999 -999 -999
2007-05-04 07:25:56 51°13.635 2°56.026 -999 -999 -999 -999 -999
2007-05-04 07:26:01 51°13.635 2°56.026 -999 -999 -999 -999 -999
2007-05-04 07:26:06 51°13.635 2°56.026 -999 -999 -999 -999 -999
2007-05-04 07:26:11 51°13.635 2°56.026 -999 -999 -999 -999 -999
2007-05-04 07:26:16 51°13.635 2°56.026 -999 -999 -999 -999 -999
2007-05-04 07:26:21 51°13.635 2°56.026 -999 -999 -999 -999 -999
2007-05-04 07:26:26 51°13.635 2°56.026 -999 -999 -999 -999 -999
2007-05-04 07:26:31 51°13.635 2°56.026 -999 -999 -999 -999 -999
2007-05-04 07:26:36 51°13.635 2°56.026 -999 -999 -999 -999 -999
2007-05-04 07:26:41 51°13.635 2°56.026 -999 -999 -999 -999 -999
2007-05-04 07:26:46 51°13.635 2°56.026 -999 -999 -999 -999 -999
2007-05-04 07:26:51 51°13.635 2°56.026 -999 -999 -999 -999 -999
2007-05-04 07:26:56 51°13.635 2°56.026 -999 -999 -999 -999 -999
2007-05-04 07:27:01 51°13.635 2°56.026 -999 -999 -999 -999 -999
2007-05-04 07:27:06 51°13.635 2°56.026 -999 -999 -999 -999 -999
2007-05-04 07:27:11 51°13.635 2°56.026 -999 -999 -999 -999 -999
2007-05-04 07:27:16 51°13.635 2°56.026 -999 -999 -999 -999 -999
2007-05-04 07:27:21 51°13.635 2°56.026 -999 -999 -999 -999 -999
2007-05-04 07:27:26 51°13.635 2°56.026 -999 -999 -999 -999 -999
2007-05-04 07:27:31 51°13.635 2°56.026 -999 -999 -999 -999 -999
2007-05-04 07:27:36 51°13.635 2°56.026 -999 -999 -999 -999 -999
2007-05-04 07:27:41 51°13.635 2°56.026 -999 -999 -999 -999 -999
2007-05-04 07:27:46 51°13.635 2°56.026 -999 -999 -999 -999 -999
2007-05-04 07:27:51 51°13.635 2°56.026 -999 -999 -999 -999 -999
2007-05-04 07:27:56 51°13.635 2°56.026 -999 -999 -999 -999 -999
2007-05-04 07:28:01 51°13.635 2°56.026 -999 -999 -999 -999 -999
2007-05-04 07:28:06 51°13.635 2°56.026 -999 -999 -999 -999 -999
2007-05-04 07:28:11 51°13.635 2°56.026 -999 -999 -999 -999 -999
2007-05-04 07:28:16 51°13.635 2°56.026 -999 -999 -999 -999 -999
2007-05-04 07:28:21 51°13.635 2°56.026 -999 -999 -999 -999 -999
2007-05-04 07:28:26 51°13.635 2°56.026 -999 -999 -999 -999 -999
2007-05-04 07:28:31 51°13.635 2°56.026 -999 -999 -999 -999 -999
2007-05-04 07:28:36 51°13.635 2°56.026 -999 -999 -999 -999 -999
2007-05-04 07:28:41 51°13.635 2°56.026 -999 -999 -999 -999 -999
2007-05-04 07:28:46 51°13.635 2°56.026 -999 -999 -999 -999 -999
2007-05-04 07:28:51 51°13.635 2°56.026 -999 -999 -999 -999 -999
2007-05-04 07:28:56 51°13.635 2°56.026 -999 -999 -999 -999 -999
2007-05-04 07:29:01 51°13.635 2°56.026 -999 -999 -999 -999 -999
2007-05-04 07:29:06 51°13.635 2°56.026 -999 -999 -999 -999 -999
2007-05-04 07:29:11 51°13.635 2°56.026 -999 -999 -999 -999 -999
2007-05-04 07:29:16 51°13.635 2°56.026 -999 -999 -999 -999 -999
2007-05-04 07:29:21 51°13.635 2°56.026 -999 -999 -999 -999 -999
2007-05-04 07:29:26 51°13.635 2°56.026 -999 -999 -999 -999 -999
2007-05-04 07:29:31 51°13.635 2°56.026 -999 -999 -999 -999 -999
2007-05-04 07:29:36 51°13.635 2°56.026 -999 -999 -999 -999 -999
2007-05-04 07:29:41 51°13.635 2°56.026 -999 -999 -999 -999 -999
2007-05-04 07:29:46 51°13.635 2°56.026 -999 -999 -999 -999 -999
2007-05-04 07:29:51 51°13.635 2°56.026 -999 -999 -999 -999 -999
2007-05-04 07:29:56 51°13.635 2°56.026 -999 -999 -999 -999 -999
2007-05-04 07:30:01 51°13.635 2°56.026 -999 -999 -999 -999 -999
2007-05-04 07:30:06 51°13.635 2°56.026 -999 -999 -999 -999 -999
2007-05-04 07:30:11 51°13.634 2°56.026 -999 -999 -999 -999 -999
2007-05-04 07:30:16 51°13.634 2°56.026 -999 -999 -999 -999 -999
2007-05-04 07:30:21 51°13.634 2°56.026 -999 -999 -999 -999 -999
2007-05-04 07:30:26 51°13.634 2°56.026 -999 -999 -999 -999 -999
2007-05-04 07:30:31 51°13.634 2°56.026 -999 -999 -999 -999 -999
2007-05-04 07:30:36 51°13.634 2°56.026 -999 -999 -999 -999 -999
2007-05-04 07:30:41 51°13.634 2°56.026 -999 -999 -999 -999 -999
2007-05-04 07:30:46 51°13.634 2°56.026 -999 -999 -999 -999 -999
2007-05-04 07:30:51 51°13.634 2°56.026 -999 -999 -999 -999 -999
2007-05-04 07:30:56 51°13.634 2°56.026 -999 -999 -999 -999 -999
2007-05-04 07:31:01 51°13.634 2°56.026 -999 -999 -999 -999 -999
2007-05-04 07:31:06 51°13.634 2°56.026 -999 -999 -999 -999 -999
2007-05-04 07:31:11 51°13.634 2°56.026 -999 -999 -999 -999 -999
2007-05-04 07:31:16 51°13.635 2°56.026 -999 -999 -999 -999 -999
2007-05-04 07:31:21 51°13.635 2°56.026 -999 -999 -999 -999 -999
2007-05-04 07:31:26 51°13.635 2°56.026 -999 -999 -999 -999 -999
2007-05-04 07:31:31 51°13.635 2°56.026 -999 -999 -999 -999 -999
2007-05-04 07:31:36 51°13.635 2°56.026 -999 -999 -999 -999 -999
2007-05-04 07:31:41 51°13.635 2°56.026 -999 -999 -999 -999 -999
2007-05-04 07:31:46 51°13.635 2°56.026 -999 -999 -999 -999 -999
2007-05-04 07:31:51 51°13.635 2°56.026 -999 -999 -999 -999 -999
2007-05-04 07:31:56 51°13.635 2°56.026 -999 -999 -999 -999 -999
2007-05-04 07:32:01 51°13.635 2°56.026 -999 -999 -999 -999 -999
2007-05-04 07:32:06 51°13.635 2°56.025 -999 -999 -999 -999 -999
2007-05-04 07:32:11 51°13.635 2°56.025 -999 -999 -999 -999 -999
2007-05-04 07:32:16 51°13.634 2°56.025 -999 -999 -999 -999 -999
2007-05-04 07:32:21 51°13.634 2°56.025 -999 -999 -999 -999 -999
2007-05-04 07:32:26 51°13.634 2°56.025 -999 -999 -999 -999 -999
2007-05-04 07:32:31 51°13.634 2°56.025 -999 -999 -999 -999 -999
2007-05-04 07:32:36 51°13.634 2°56.025 -999 -999 -999 -999 -999
2007-05-04 07:32:41 51°13.634 2°56.025 -999 -999 -999 -999 -999
2007-05-04 07:32:46 51°13.634 2°56.025 -999 -999 -999 -999 -999
2007-05-04 07:32:51 51°13.634 2°56.025 -999 -999 -999 -999 -999
2007-05-04 07:32:56 51°13.634 2°56.025 -999 -999 -999 -999 -999
2007-05-04 07:33:01 51°13.634 2°56.025 -999 -999 -999 -999 -999
2007-05-04 07:33:06 51°13.634 2°56.025 -999 -999 -999 -999 -999
2007-05-04 07:33:11 51°13.634 2°56.025 -999 -999 -999 -999 -999
2007-05-04 07:33:16 51°13.634 2°56.025 -999 -999 -999 -999 -999
2007-05-04 07:33:21 51°13.634 2°56.025 -999 -999 -999 -999 -999
2007-05-04 07:33:26 51°13.634 2°56.025 -999 -999 -999 -999 -999
2007-05-04 07:33:31 51°13.634 2°56.025 -999 -999 -999 -999 -999
2007-05-04 07:33:36 51°13.634 2°56.025 -999 -999 -999 -999 -999
2007-05-04 07:33:41 51°13.634 2°56.025 -999 -999 -999 -999 -999
2007-05-04 07:33:46 51°13.634 2°56.025 -999 -999 -999 -999 -999
2007-05-04 07:33:51 51°13.634 2°56.025 -999 -999 -999 -999 -999
2007-05-04 07:33:56 51°13.635 2°56.025 -999 -999 -999 -999 -999
2007-05-04 07:34:01 51°13.635 2°56.025 -999 -999 -999 -999 -999
2007-05-04 07:34:06 51°13.635 2°56.025 -999 -999 -999 -999 -999
2007-05-04 07:34:11 51°13.635 2°56.025 -999 -999 -999 -999 -999
2007-05-04 07:34:16 51°13.635 2°56.025 -999 -999 -999 -999 -999
2007-05-04 07:34:21 51°13.635 2°56.025 -999 -999 -999 -999 -999
2007-05-04 07:34:26 51°13.635 2°56.025 -999 -999 -999 -999 -999
2007-05-04 07:34:31 51°13.635 2°56.025 -999 -999 -999 -999 -999
2007-05-04 07:34:36 51°13.635 2°56.025 -999 -999 -999 -999 -999
2007-05-04 07:34:41 51°13.635 2°56.025 -999 -999 -999 -999 -999
2007-05-04 07:34:46 51°13.635 2°56.025 -999 -999 -999 -999 -999
2007-05-04 07:34:51 51°13.635 2°56.025 -999 -999 -999 -999 -999
2007-05-04 07:34:56 51°13.634 2°56.025 -999 -999 -999 -999 -999
2007-05-04 07:35:01 51°13.634 2°56.025 -999 -999 -999 -999 -999
2007-05-04 07:35:06 51°13.634 2°56.025 -999 -999 -999 -999 -999
2007-05-04 07:35:11 51°13.634 2°56.025 -999 -999 -999 -999 -999
2007-05-04 07:35:16 51°13.634 2°56.025 -999 -999 -999 -999 -999
2007-05-04 07:35:21 51°13.634 2°56.025 -999 -999 -999 -999 -999
2007-05-04 07:35:26 51°13.634 2°56.025 -999 -999 -999 -999 -999
2007-05-04 07:35:31 51°13.634 2°56.025 -999 -999 -999 -999 -999
2007-05-04 07:35:36 51°13.634 2°56.025 -999 -999 -999 -999 -999
2007-05-04 07:35:41 51°13.634 2°56.025 -999 -999 -999 -999 -999
2007-05-04 07:35:46 51°13.634 2°56.025 -999 -999 -999 -999 -999
2007-05-04 07:35:51 51°13.634 2°56.025 -999 -999 -999 -999 -999
2007-05-04 07:35:56 51°13.634 2°56.025 -999 -999 -999 -999 -999
2007-05-04 07:36:01 51°13.634 2°56.025 -999 -999 -999 -999 -999
2007-05-04 07:36:06 51°13.634 2°56.025 -999 -999 -999 -999 -999
2007-05-04 07:36:11 51°13.634 2°56.025 -999 -999 -999 -999 -999
2007-05-04 07:36:16 51°13.634 2°56.025 -999 -999 -999 -999 -999
2007-05-04 07:36:21 51°13.634 2°56.024 -999 -999 -999 -999 -999
2007-05-04 07:36:26 51°13.634 2°56.025 -999 -999 -999 -999 -999
2007-05-04 07:36:31 51°13.634 2°56.025 -999 -999 -999 -999 -999
2007-05-04 07:36:36 51°13.634 2°56.025 -999 -999 -999 -999 -999
2007-05-04 07:36:41 51°13.634 2°56.025 -999 -999 -999 -999 -999
2007-05-04 07:36:46 51°13.634 2°56.025 -999 -999 -999 -999 -999
2007-05-04 07:36:51 51°13.634 2°56.025 -999 -999 -999 -999 -999
2007-05-04 07:36:56 51°13.634 2°56.025 -999 -999 -999 -999 -999
2007-05-04 07:37:01 51°13.634 2°56.025 -999 -999 -999 -999 -999
2007-05-04 07:37:06 51°13.633 2°56.025 -999 -999 -999 -999 -999
2007-05-04 07:37:11 51°13.633 2°56.025 -999 -999 -999 -999 -999
2007-05-04 07:37:16 51°13.633 2°56.025 -999 -999 -999 -999 -999
2007-05-04 07:37:21 51°13.633 2°56.025 -999 -999 -999 -999 -999
2007-05-04 07:37:26 51°13.633 2°56.025 -999 -999 -999 -999 -999
2007-05-04 07:37:31 51°13.633 2°56.025 -999 -999 -999 -999 -999
2007-05-04 07:37:36 51°13.633 2°56.024 -999 -999 -999 -999 -999
2007-05-04 07:37:41 51°13.633 2°56.024 -999 -999 -999 -999 -999
2007-05-04 07:37:46 51°13.633 2°56.024 -999 -999 -999 -999 -999
2007-05-04 07:37:51 51°13.633 2°56.023 -999 -999 -999 -999 -999
2007-05-04 07:37:56 51°13.633 2°56.023 -999 -999 -999 -999 -999
2007-05-04 07:38:01 51°13.633 2°56.022 -999 -999 -999 -999 -999
2007-05-04 07:38:06 51°13.633 2°56.02 -999 -999 -999 -999 -999
2007-05-04 07:38:11 51°13.634 2°56.018 -999 -999 -999 -999 -999
2007-05-04 07:38:16 51°13.634 2°56.016 -999 -999 -999 -999 -999
2007-05-04 07:38:21 51°13.635 2°56.013 -999 -999 -999 -999 -999
2007-05-04 07:38:26 51°13.635 2°56.01 -999 -999 -999 -999 -999
2007-05-04 07:38:31 51°13.636 2°56.007 -999 -999 -999 -999 -999
2007-05-04 07:38:36 51°13.637 2°56.003 -999 -999 -999 -999 -999
2007-05-04 07:38:41 51°13.638 2°55.999 -999 -999 -999 -999 -999
2007-05-04 07:38:46 51°13.639 2°55.995 -999 -999 -999 -999 -999
2007-05-04 07:38:51 51°13.64 2°55.991 -999 -999 -999 -999 -999
2007-05-04 07:38:56 51°13.642 2°55.987 -999 -999 -999 -999 -999
2007-05-04 07:39:01 51°13.643 2°55.982 -999 -999 -999 -999 -999
2007-05-04 07:39:06 51°13.644 2°55.977 -999 -999 -999 -999 -999
2007-05-04 07:39:11 51°13.646 2°55.972 -999 -999 -999 -999 -999
2007-05-04 07:39:16 51°13.647 2°55.967 -999 -999 -999 -999 -999
2007-05-04 07:39:21 51°13.648 2°55.961 -999 -999 -999 -999 -999
2007-05-04 07:39:26 51°13.65 2°55.955 -999 -999 -999 -999 -999
2007-05-04 07:39:31 51°13.651 2°55.949 -999 -999 -999 -999 -999
2007-05-04 07:39:36 51°13.653 2°55.943 -999 -999 -999 -999 -999
2007-05-04 07:39:41 51°13.654 2°55.936 -999 -999 -999 -999 -999
2007-05-04 07:39:46 51°13.655 2°55.93 -999 -999 -999 -999 -999
2007-05-04 07:39:51 51°13.657 2°55.923 -999 -999 -999 -999 -999
2007-05-04 07:39:56 51°13.658 2°55.916 -999 -999 -999 -999 -999
2007-05-04 07:40:01 51°13.66 2°55.91 -999 -999 -999 -999 -999
2007-05-04 07:40:06 51°13.661 2°55.902 -999 -999 -999 -999 -999
2007-05-04 07:40:11 51°13.663 2°55.895 -999 -999 -999 -999 -999
2007-05-04 07:40:16 51°13.664 2°55.888 -999 -999 -999 -999 -999
2007-05-04 07:40:21 51°13.665 2°55.881 -999 -999 -999 -999 -999
2007-05-04 07:40:26 51°13.667 2°55.874 -999 -999 -999 -999 -999
2007-05-04 07:40:31 51°13.669 2°55.867 -999 -999 -999 -999 -999
2007-05-04 07:40:36 51°13.671 2°55.86 -999 -999 -999 -999 -999
2007-05-04 07:40:41 51°13.672 2°55.853 -999 -999 -999 -999 -999
2007-05-04 07:40:46 51°13.674 2°55.846 -999 -999 -999 -999 -999
2007-05-04 07:40:51 51°13.676 2°55.839 -999 -999 -999 -999 -999
2007-05-04 07:40:56 51°13.678 2°55.832 -999 -999 -999 -999 -999
2007-05-04 07:41:01 51°13.681 2°55.825 -999 -999 -999 -999 -999
2007-05-04 07:41:06 51°13.683 2°55.818 -999 -999 -999 -999 -999
2007-05-04 07:41:11 51°13.685 2°55.811 -999 -999 -999 -999 -999
2007-05-04 07:41:16 51°13.688 2°55.805 -999 -999 -999 -999 -999
2007-05-04 07:41:21 51°13.69 2°55.799 -999 -999 -999 -999 -999
2007-05-04 07:41:26 51°13.692 2°55.793 -999 -999 -999 -999 -999
2007-05-04 07:41:31 51°13.694 2°55.788 -999 -999 -999 -999 -999
2007-05-04 07:41:36 51°13.696 2°55.785 -999 -999 -999 -999 -999
2007-05-04 07:41:41 51°13.697 2°55.782 -999 -999 -999 -999 -999
2007-05-04 07:41:46 51°13.698 2°55.78 -999 -999 -999 -999 -999
2007-05-04 07:41:51 51°13.699 2°55.778 -999 -999 -999 -999 -999
2007-05-04 07:41:56 51°13.699 2°55.776 -999 -999 -999 -999 -999
2007-05-04 07:42:01 51°13.7 2°55.773 -999 -999 -999 -999 -999
2007-05-04 07:42:06 51°13.701 2°55.77 -999 -999 -999 -999 -999
2007-05-04 07:42:11 51°13.702 2°55.766 -999 -999 -999 -999 -999
2007-05-04 07:42:16 51°13.704 2°55.762 -999 -999 -999 -999 -999
2007-05-04 07:42:21 51°13.705 2°55.757 -999 -999 -999 -999 -999
2007-05-04 07:42:26 51°13.706 2°55.752 -999 -999 -999 -999 -999
2007-05-04 07:42:31 51°13.707 2°55.748 -999 -999 -999 -999 -999
2007-05-04 07:42:36 51°13.709 2°55.743 -999 -999 -999 -999 -999
2007-05-04 07:42:41 51°13.71 2°55.738 -999 -999 -999 -999 -999
2007-05-04 07:42:46 51°13.711 2°55.733 -999 -999 -999 -999 -999
2007-05-04 07:42:51 51°13.712 2°55.729 -999 -999 -999 -999 -999
2007-05-04 07:42:56 51°13.713 2°55.726 -999 -999 -999 -999 -999
2007-05-04 07:43:01 51°13.713 2°55.724 -999 -999 -999 -999 -999
2007-05-04 07:43:06 51°13.713 2°55.723 -999 -999 -999 -999 -999
2007-05-04 07:43:11 51°13.713 2°55.723 -999 -999 -999 -999 -999
2007-05-04 07:43:16 51°13.713 2°55.724 -999 -999 -999 -999 -999
2007-05-04 07:43:21 51°13.712 2°55.726 -999 -999 -999 -999 -999
2007-05-04 07:43:26 51°13.712 2°55.728 -999 -999 -999 -999 -999
2007-05-04 07:43:31 51°13.712 2°55.731 -999 -999 -999 -999 -999
2007-05-04 07:43:36 51°13.713 2°55.735 -999 -999 -999 -999 -999
2007-05-04 07:43:41 51°13.713 2°55.739 -999 -999 -999 -999 -999
2007-05-04 07:43:46 51°13.714 2°55.743 -999 -999 -999 -999 -999
2007-05-04 07:43:51 51°13.715 2°55.747 -999 -999 -999 -999 -999
2007-05-04 07:43:56 51°13.716 2°55.751 -999 -999 -999 -999 -999
2007-05-04 07:44:01 51°13.716 2°55.754 -999 -999 -999 -999 -999
2007-05-04 07:44:06 51°13.717 2°55.757 -999 -999 -999 -999 -999
2007-05-04 07:44:11 51°13.718 2°55.759 -999 -999 -999 -999 -999
2007-05-04 07:44:16 51°13.718 2°55.76 -999 -999 -999 -999 -999
2007-05-04 07:44:21 51°13.717 2°55.76 -999 -999 -999 -999 -999
2007-05-04 07:44:26 51°13.716 2°55.759 -999 -999 -999 -999 -999
2007-05-04 07:44:31 51°13.715 2°55.757 -999 -999 -999 -999 -999
2007-05-04 07:44:36 51°13.714 2°55.755 -999 -999 -999 -999 -999
2007-05-04 07:44:41 51°13.712 2°55.752 -999 -999 -999 -999 -999
2007-05-04 07:44:46 51°13.711 2°55.749 -999 -999 -999 -999 -999
2007-05-04 07:44:51 51°13.709 2°55.746 -999 -999 -999 -999 -999
2007-05-04 07:44:56 51°13.707 2°55.743 -999 -999 -999 -999 -999
2007-05-04 07:45:01 51°13.706 2°55.741 -999 -999 -999 -999 -999
2007-05-04 07:45:06 51°13.705 2°55.738 -999 -999 -999 -999 -999
2007-05-04 07:45:11 51°13.703 2°55.736 -999 -999 -999 -999 -999
2007-05-04 07:45:16 51°13.702 2°55.734 -999 -999 -999 -999 -999
2007-05-04 07:45:21 51°13.701 2°55.733 -999 -999 -999 -999 -999
2007-05-04 07:45:26 51°13.7 2°55.733 -999 -999 -999 -999 -999
2007-05-04 07:45:31 51°13.7 2°55.734 -999 -999 -999 -999 -999
2007-05-04 07:45:36 51°13.701 2°55.736 -999 -999 -999 -999 -999
2007-05-04 07:45:41 51°13.703 2°55.739 -999 -999 -999 -999 -999
2007-05-04 07:45:46 51°13.704 2°55.742 -999 -999 -999 -999 -999
2007-05-04 07:45:51 51°13.707 2°55.744 -999 -999 -999 -999 -999
2007-05-04 07:45:56 51°13.709 2°55.747 -999 -999 -999 -999 -999
2007-05-04 07:46:01 51°13.711 2°55.749 -999 -999 -999 -999 -999
2007-05-04 07:46:06 51°13.713 2°55.751 -999 -999 -999 -999 -999
2007-05-04 07:46:11 51°13.715 2°55.753 -999 -999 -999 -999 -999
2007-05-04 07:46:16 51°13.716 2°55.754 -999 -999 -999 -999 -999
2007-05-04 07:46:21 51°13.716 2°55.755 -999 -999 -999 -999 -999
2007-05-04 07:46:26 51°13.715 2°55.755 -999 -999 -999 -999 -999
2007-05-04 07:46:31 51°13.713 2°55.754 -999 -999 -999 -999 -999
2007-05-04 07:46:36 51°13.711 2°55.753 -999 -999 -999 -999 -999
2007-05-04 07:46:41 51°13.708 2°55.752 -999 -999 -999 -999 -999
2007-05-04 07:46:46 51°13.706 2°55.75 -999 -999 -999 -999 -999
2007-05-04 07:46:51 51°13.704 2°55.749 -999 -999 -999 -999 -999
2007-05-04 07:46:56 51°13.701 2°55.747 -999 -999 -999 -999 -999
2007-05-04 07:47:01 51°13.699 2°55.745 -999 -999 -999 -999 -999
2007-05-04 07:47:06 51°13.697 2°55.744 -999 -999 -999 -999 -999
2007-05-04 07:47:11 51°13.695 2°55.743 -999 -999 -999 -999 -999
2007-05-04 07:47:16 51°13.693 2°55.742 -999 -999 -999 -999 -999
2007-05-04 07:47:21 51°13.692 2°55.741 -999 -999 -999 -999 -999
2007-05-04 07:47:26 51°13.69 2°55.74 -999 -999 -999 -999 -999
2007-05-04 07:47:31 51°13.689 2°55.74 -999 -999 -999 -999 -999
2007-05-04 07:47:36 51°13.688 2°55.74 -999 -999 -999 -999 -999
2007-05-04 07:47:41 51°13.687 2°55.739 -999 -999 -999 -999 -999
2007-05-04 07:47:46 51°13.687 2°55.74 -999 -999 -999 -999 -999
2007-05-04 07:47:51 51°13.687 2°55.74 -999 -999 -999 -999 -999
2007-05-04 07:47:56 51°13.687 2°55.74 -999 -999 -999 -999 -999
2007-05-04 07:48:01 51°13.687 2°55.74 -999 -999 -999 -999 -999
2007-05-04 07:48:06 51°13.687 2°55.74 -999 -999 -999 -999 -999
2007-05-04 07:48:11 51°13.687 2°55.74 -999 -999 -999 -999 -999
2007-05-04 07:48:16 51°13.688 2°55.74 -999 -999 -999 -999 -999
2007-05-04 07:48:21 51°13.689 2°55.74 -999 -999 -999 -999 -999
2007-05-04 07:48:26 51°13.689 2°55.74 -999 -999 -999 -999 -999
2007-05-04 07:48:31 51°13.691 2°55.739 -999 -999 -999 -999 -999
2007-05-04 07:48:36 51°13.692 2°55.739 -999 -999 -999 -999 -999
2007-05-04 07:48:41 51°13.694 2°55.737 -999 -999 -999 -999 -999
2007-05-04 07:48:46 51°13.696 2°55.736 -999 -999 -999 -999 -999
2007-05-04 07:48:51 51°13.698 2°55.734 -999 -999 -999 -999 -999
2007-05-04 07:48:56 51°13.701 2°55.733 -999 -999 -999 -999 -999
2007-05-04 07:49:01 51°13.705 2°55.731 -999 -999 -999 -999 -999
2007-05-04 07:49:06 51°13.708 2°55.729 -999 -999 -999 -999 -999
2007-05-04 07:49:11 51°13.712 2°55.727 -999 -999 -999 -999 -999
2007-05-04 07:49:16 51°13.716 2°55.724 -999 -999 -999 -999 -999
2007-05-04 07:49:21 51°13.721 2°55.721 -999 -999 -999 -999 -999
2007-05-04 07:49:26 51°13.725 2°55.717 -999 -999 -999 -999 -999
2007-05-04 07:49:31 51°13.73 2°55.713 -999 -999 -999 -999 -999
2007-05-04 07:49:36 51°13.734 2°55.709 -999 -999 -999 -999 -999
2007-05-04 07:49:41 51°13.739 2°55.704 -999 -999 -999 -999 -999
2007-05-04 07:49:46 51°13.745 2°55.699 -999 -999 -999 -999 -999
2007-05-04 07:49:51 51°13.75 2°55.694 -999 -999 -999 -999 -999
2007-05-04 07:49:56 51°13.756 2°55.689 -999 -999 -999 -999 -999
2007-05-04 07:50:01 51°13.762 2°55.683 -999 -999 -999 -999 -999
2007-05-04 07:50:06 51°13.769 2°55.678 -999 -999 -999 -999 -999
2007-05-04 07:50:11 51°13.776 2°55.673 -999 -999 -999 -999 -999
2007-05-04 07:50:16 51°13.783 2°55.667 -999 -999 -999 -999 -999
2007-05-04 07:50:21 51°13.79 2°55.662 -999 -999 -999 -999 -999
2007-05-04 07:50:26 51°13.797 2°55.656 -999 -999 -999 -999 -999
2007-05-04 07:50:31 51°13.805 2°55.652 -999 -999 -999 -999 -999
2007-05-04 07:50:36 51°13.813 2°55.646 -999 -999 -999 -999 -999
2007-05-04 07:50:41 51°13.82 2°55.641 -999 -999 -999 -999 -999
2007-05-04 07:50:46 51°13.829 2°55.635 -999 -999 -999 -999 -999
2007-05-04 07:50:51 51°13.837 2°55.628 -999 -999 -999 -999 -999
2007-05-04 07:50:56 51°13.846 2°55.622 -999 -999 -999 -999 -999
2007-05-04 07:51:01 51°13.856 2°55.616 -999 -999 -999 -999 -999
2007-05-04 07:51:06 51°13.865 2°55.609 -999 -999 -999 -999 -999
2007-05-04 07:51:11 51°13.875 2°55.602 -999 -999 -999 -999 -999
2007-05-04 07:51:16 51°13.885 2°55.594 -999 -999 -999 -999 -999
2007-05-04 07:51:21 51°13.895 2°55.587 -999 -999 -999 -999 -999
2007-05-04 07:51:26 51°13.905 2°55.579 -999 -999 -999 -999 -999
2007-05-04 07:51:31 51°13.915 2°55.571 -999 -999 -999 -999 -999
2007-05-04 07:51:36 51°13.925 2°55.564 -999 -999 -999 -999 -999
2007-05-04 07:51:41 51°13.936 2°55.556 -999 -999 -999 -999 -999
2007-05-04 07:51:46 51°13.946 2°55.548 -999 -999 -999 -999 -999
2007-05-04 07:51:51 51°13.958 2°55.542 -999 -999 -999 -999 -999
2007-05-04 07:51:56 51°13.969 2°55.535 -999 -999 -999 -999 -999
2007-05-04 07:52:01 51°13.981 2°55.527 -999 -999 -999 -999 -999
2007-05-04 07:52:06 51°13.992 2°55.519 -999 -999 -999 -999 -999
2007-05-04 07:52:11 51°14.003 2°55.51 -999 -999 -999 -999 -999
2007-05-04 07:52:16 51°14.015 2°55.502 -999 -999 -999 -999 -999
2007-05-04 07:52:21 51°14.026 2°55.493 -999 -999 -999 -999 -999
2007-05-04 07:52:26 51°14.038 2°55.485 -999 -999 -999 -999 -999
2007-05-04 07:52:31 51°14.049 2°55.476 -999 -999 -999 -999 -999
2007-05-04 07:52:36 51°14.061 2°55.469 -999 -999 -999 -999 -999
2007-05-04 07:52:41 51°14.073 2°55.461 -999 -999 -999 -999 -999
2007-05-04 07:52:46 51°14.085 2°55.454 -999 -999 -999 -999 -999
2007-05-04 07:52:51 51°14.097 2°55.446 -999 -999 -999 -999 -999
2007-05-04 07:52:56 51°14.109 2°55.438 -999 -999 -999 -999 -999
2007-05-04 07:53:01 51°14.121 2°55.429 -999 -999 -999 -999 -999
2007-05-04 07:53:06 51°14.134 2°55.421 -999 -999 -999 -999 -999
2007-05-04 07:53:11 51°14.146 2°55.412 -999 -999 -999 -999 -999
2007-05-04 07:53:16 51°14.158 2°55.403 -999 -999 -999 -999 -999
2007-05-04 07:53:21 51°14.171 2°55.393 -999 -999 -999 -999 -999
2007-05-04 07:53:26 51°14.183 2°55.383 -999 -999 -999 -999 -999
2007-05-04 07:53:31 51°14.195 2°55.371 -999 -999 -999 -999 -999
2007-05-04 07:53:36 51°14.206 2°55.358 -999 -999 -999 -999 -999
2007-05-04 07:53:41 51°14.218 2°55.345 -999 -999 -999 -999 -999
2007-05-04 07:53:46 51°14.229 2°55.332 -999 -999 -999 -999 -999
2007-05-04 07:53:51 51°14.239 2°55.317 -999 -999 -999 -999 -999
2007-05-04 07:53:56 51°14.248 2°55.301 -999 -999 -999 -999 -999
2007-05-04 07:54:01 51°14.258 2°55.284 -999 -999 -999 -999 -999
2007-05-04 07:54:06 51°14.267 2°55.267 -999 -999 -999 -999 -999
2007-05-04 07:54:11 51°14.276 2°55.25 -999 -999 -999 -999 -999
2007-05-04 07:54:16 51°14.285 2°55.232 -999 -999 -999 -999 -999
2007-05-04 07:54:21 51°14.293 2°55.214 -999 -999 -999 -999 -999
2007-05-04 07:54:26 51°14.302 2°55.195 -999 -999 -999 -999 -999
2007-05-04 07:54:31 51°14.31 2°55.176 -999 -999 -999 -999 -999
2007-05-04 07:54:36 51°14.319 2°55.155 -999 -999 -999 -999 -999
2007-05-04 07:54:41 51°14.327 2°55.134 -999 -999 -999 -999 -999
2007-05-04 07:54:46 51°14.335 2°55.113 -999 -999 -999 -999 -999
2007-05-04 07:54:51 51°14.343 2°55.092 -999 -999 -999 -999 -999
2007-05-04 07:54:56 51°14.351 2°55.07 -999 -999 -999 -999 -999
2007-05-04 07:55:01 51°14.36 2°55.047 -999 -999 -999 -999 -999
2007-05-04 07:55:06 51°14.367 2°55.024 -999 -999 -999 -999 -999
2007-05-04 07:55:11 51°14.375 2°55.001 -999 -999 -999 -999 -999
2007-05-04 07:55:16 51°14.382 2°54.976 -999 -999 -999 -999 -999
2007-05-04 07:55:21 51°14.389 2°54.952 -999 -999 -999 -999 -999
2007-05-04 07:55:26 51°14.397 2°54.927 -999 -999 -999 -999 -999
2007-05-04 07:55:31 51°14.404 2°54.902 -999 -999 -999 -999 -999
2007-05-04 07:55:36 51°14.412 2°54.877 -999 -999 -999 -999 -999
2007-05-04 07:55:41 51°14.42 2°54.85 -999 -999 -999 -999 -999
2007-05-04 07:55:46 51°14.428 2°54.824 -999 -999 -999 -999 -999
2007-05-04 07:55:51 51°14.436 2°54.798 -999 -999 -999 -999 -999
2007-05-04 07:55:56 51°14.444 2°54.771 -999 -999 -999 -999 -999
2007-05-04 07:56:01 51°14.451 2°54.744 -999 -999 -999 -999 -999
2007-05-04 07:56:06 51°14.459 2°54.717 -999 -999 -999 -999 -999
2007-05-04 07:56:11 51°14.466 2°54.69 -999 -999 -999 -999 -999
2007-05-04 07:56:16 51°14.473 2°54.661 -999 -999 -999 -999 -999
2007-05-04 07:56:21 51°14.479 2°54.632 -999 -999 -999 -999 -999
2007-05-04 07:56:26 51°14.484 2°54.603 -999 -999 -999 -999 -999
2007-05-04 07:56:31 51°14.489 2°54.574 -999 -999 -999 -999 -999
2007-05-04 07:56:36 51°14.492 2°54.544 -999 -999 -999 -999 -999
2007-05-04 07:56:41 51°14.495 2°54.514 -999 -999 -999 -999 -999
2007-05-04 07:56:46 51°14.496 2°54.483 -999 -999 -999 -999 -999
2007-05-04 07:56:51 51°14.495 2°54.452 -999 -999 -999 -999 -999
2007-05-04 07:56:56 51°14.493 2°54.422 -999 -999 -999 -999 -999
2007-05-04 07:57:01 51°14.49 2°54.391 -999 -999 -999 -999 -999
2007-05-04 07:57:06 51°14.485 2°54.361 -999 -999 -999 -999 -999
2007-05-04 07:57:11 51°14.479 2°54.331 -999 -999 -999 -999 -999
2007-05-04 07:57:16 51°14.472 2°54.302 -999 -999 -999 -999 -999
2007-05-04 07:57:21 51°14.464 2°54.272 -999 -999 -999 -999 -999
2007-05-04 07:57:26 51°14.456 2°54.244 -999 -999 -999 -999 -999
2007-05-04 07:57:31 51°14.447 2°54.216 -999 -999 -999 -999 -999
2007-05-04 07:57:36 51°14.438 2°54.189 -999 -999 -999 -999 -999
2007-05-04 07:57:41 51°14.428 2°54.163 -999 -999 -999 -999 -999
2007-05-04 07:57:46 51°14.419 2°54.135 -999 -999 -999 -999 -999
2007-05-04 07:57:51 51°14.408 2°54.109 -999 -999 -999 -999 -999
2007-05-04 07:57:56 51°14.4 2°54.08 -999 -999 -999 -999 -999
2007-05-04 07:58:01 51°14.388 2°54.054 -999 -999 -999 -999 -999
2007-05-04 07:58:06 51°14.38 2°54.026 -999 -999 -999 -999 -999
2007-05-04 07:58:11 51°14.371 2°53.998 -999 -999 -999 -999 -999
2007-05-04 07:58:16 51°14.361 2°53.971 -999 -999 -999 -999 -999
2007-05-04 07:58:21 51°14.353 2°53.942 -999 -999 -999 -999 -999
2007-05-04 07:58:26 51°14.343 2°53.915 -999 -999 -999 -999 -999
2007-05-04 07:58:31 51°14.333 2°53.886 -999 -999 -999 -999 -999
2007-05-04 07:58:36 51°14.325 2°53.858 -999 -999 -999 -999 -999
2007-05-04 07:58:41 51°14.315 2°53.83 -999 -999 -999 -999 -999
2007-05-04 07:58:46 51°14.306 2°53.802 -999 -999 -999 -999 -999
2007-05-04 07:58:51 51°14.296 2°53.773 -999 -999 -999 -999 -999
2007-05-04 07:58:56 51°14.287 2°53.745 -999 -999 -999 -999 -999
2007-05-04 07:59:01 51°14.278 2°53.716 -999 -999 -999 -999 -999
2007-05-04 07:59:06 51°14.269 2°53.688 -999 -999 -999 -999 -999
2007-05-04 07:59:11 51°14.259 2°53.66 -999 -999 -999 -999 -999
2007-05-04 07:59:16 51°14.25 2°53.631 -999 -999 -999 -999 -999
2007-05-04 07:59:21 51°14.241 2°53.603 -999 -999 -999 -999 -999
2007-05-04 07:59:26 51°14.229 2°53.576 -999 -999 -999 -999 -999
2007-05-04 07:59:31 51°14.222 2°53.546 -999 -999 -999 -999 -999
2007-05-04 07:59:36 51°14.209 2°53.52 -999 -999 -999 -999 -999
2007-05-04 07:59:41 51°14.201 2°53.491 -999 -999 -999 -999 -999
2007-05-04 07:59:46 51°14.188 2°53.465 -999 -999 -999 -999 -999
2007-05-04 07:59:51 51°14.178 2°53.437 -999 -999 -999 -999 -999
2007-05-04 07:59:56 51°14.167 2°53.41 -999 -999 -999 -999 -999
2007-05-04 08:00:01 51°14.155 2°53.383 -999 -999 -999 -999 -999
2007-05-04 08:00:06 51°14.144 2°53.356 -999 -999 -999 -999 -999
2007-05-04 08:00:11 51°14.131 2°53.331 -999 -999 -999 -999 -999
2007-05-04 08:00:16 51°14.121 2°53.302 -999 -999 -999 -999 -999
2007-05-04 08:00:21 51°14.108 2°53.277 -999 -999 -999 -999 -999
2007-05-04 08:00:26 51°14.098 2°53.248 -999 -999 -999 -999 -999
2007-05-04 08:00:31 51°14.085 2°53.222 -999 -999 -999 -999 -999
2007-05-04 08:00:36 51°14.075 2°53.194 -999 -999 -999 -999 -999
2007-05-04 08:00:41 51°14.063 2°53.168 -999 -999 -999 -999 -999
2007-05-04 08:00:46 51°14.053 2°53.139 -999 -999 -999 -999 -999
2007-05-04 08:00:51 51°14.04 2°53.112 -999 -999 -999 -999 -999
2007-05-04 08:00:56 51°14.03 2°53.084 -999 -999 -999 -999 -999
2007-05-04 08:01:01 51°14.018 2°53.058 -999 -999 -999 -999 -999
2007-05-04 08:01:06 51°14.007 2°53.03 -999 -999 -999 -999 -999
2007-05-04 08:01:11 51°13.995 2°53.003 -999 -999 -999 -999 -999
2007-05-04 08:01:16 51°13.983 2°52.975 -999 -999 -999 -999 -999
2007-05-04 08:01:21 51°13.972 2°52.948 -999 -999 -999 -999 -999
2007-05-04 08:01:26 51°13.961 2°52.921 -999 -999 -999 -999 -999
2007-05-04 08:01:31 51°13.95 2°52.894 -999 -999 -999 -999 -999
2007-05-04 08:01:36 51°13.938 2°52.866 -999 -999 -999 -999 -999
2007-05-04 08:01:41 51°13.927 2°52.838 -999 -999 -999 -999 -999
2007-05-04 08:01:46 51°13.916 2°52.81 -999 -999 -999 -999 -999
2007-05-04 08:01:51 51°13.905 2°52.782 -999 -999 -999 -999 -999
2007-05-04 08:01:56 51°13.894 2°52.754 -999 -999 -999 -999 -999
2007-05-04 08:02:01 51°13.884 2°52.726 -999 -999 -999 -999 -999
2007-05-04 08:02:06 51°13.872 2°52.699 -999 -999 -999 -999 -999
2007-05-04 08:02:11 51°13.863 2°52.669 -999 -999 -999 -999 -999
2007-05-04 08:02:16 51°13.85 2°52.644 -999 -999 -999 -999 -999
2007-05-04 08:02:21 51°13.839 2°52.614 -999 -999 -999 -999 -999
2007-05-04 08:02:26 51°13.829 2°52.585 -999 -999 -999 -999 -999
2007-05-04 08:02:31 51°13.817 2°52.56 -999 -999 -999 -999 -999
2007-05-04 08:02:36 51°13.806 2°52.532 -999 -999 -999 -999 -999
2007-05-04 08:02:41 51°13.796 2°52.501 -999 -999 -999 -999 -999
2007-05-04 08:02:46 51°13.787 2°52.472 -999 -999 -999 -999 -999
2007-05-04 08:02:51 51°13.776 2°52.446 -999 -999 -999 -999 -999
2007-05-04 08:02:56 51°13.766 2°52.417 -999 -999 -999 -999 -999
2007-05-04 08:03:01 51°13.756 2°52.388 -999 -999 -999 -999 -999
2007-05-04 08:03:06 51°13.744 2°52.361 -999 -999 -999 -999 -999
2007-05-04 08:03:11 51°13.733 2°52.334 -999 -999 -999 -999 -999
2007-05-04 08:03:16 51°13.721 2°52.308 -999 -999 -999 -999 -999
2007-05-04 08:03:21 51°13.711 2°52.279 -999 -999 -999 -999 -999
2007-05-04 08:03:26 51°13.699 2°52.252 -999 -999 -999 -999 -999
2007-05-04 08:03:31 51°13.688 2°52.225 -999 -999 -999 -999 -999
2007-05-04 08:03:36 51°13.676 2°52.198 -999 -999 -999 -999 -999
2007-05-04 08:03:41 51°13.665 2°52.17 -999 -999 -999 -999 -999
2007-05-04 08:03:46 51°13.654 2°52.143 -999 -999 -999 -999 -999
2007-05-04 08:03:51 51°13.643 2°52.115 -999 -999 -999 -999 -999
2007-05-04 08:03:56 51°13.632 2°52.087 -999 -999 -999 -999 -999
2007-05-04 08:04:01 51°13.62 2°52.061 -999 -999 -999 -999 -999
2007-05-04 08:04:06 51°13.609 2°52.032 -999 -999 -999 -999 -999
2007-05-04 08:04:11 51°13.598 2°52.004 -999 -999 -999 -999 -999
2007-05-04 08:04:16 51°13.587 2°51.976 -999 -999 -999 -999 -999
2007-05-04 08:04:21 51°13.578 2°51.947 -999 -999 -999 -999 -999
2007-05-04 08:04:26 51°13.565 2°51.92 -999 -999 -999 -999 -999
2007-05-04 08:04:31 51°13.557 2°51.89 -999 -999 -999 -999 -999
2007-05-04 08:04:36 51°13.544 2°51.864 -999 -999 -999 -999 -999
2007-05-04 08:04:41 51°13.534 2°51.834 -999 -999 -999 -999 -999
2007-05-04 08:04:46 51°13.523 2°51.807 -999 -999 -999 -999 -999
2007-05-04 08:04:51 51°13.512 2°51.779 -999 -999 -999 -999 -999
2007-05-04 08:04:56 51°13.501 2°51.751 -999 -999 -999 -999 -999
2007-05-04 08:05:01 51°13.49 2°51.723 -999 -999 -999 -999 -999
2007-05-04 08:05:06 51°13.479 2°51.694 -999 -999 -999 -999 -999
2007-05-04 08:05:11 51°13.468 2°51.666 -999 -999 -999 -999 -999
2007-05-04 08:05:16 51°13.457 2°51.638 -999 -999 -999 -999 -999
2007-05-04 08:05:21 51°13.446 2°51.61 -999 -999 -999 -999 -999
2007-05-04 08:05:26 51°13.436 2°51.582 -999 -999 -999 -999 -999
2007-05-04 08:05:31 51°13.425 2°51.554 -999 -999 -999 -999 -999
2007-05-04 08:05:36 51°13.415 2°51.525 -999 -999 -999 -999 -999
2007-05-04 08:05:41 51°13.404 2°51.496 -999 -999 -999 -999 -999
2007-05-04 08:05:46 51°13.392 2°51.469 -999 -999 -999 -999 -999
2007-05-04 08:05:51 51°13.382 2°51.44 -999 -999 -999 -999 -999
2007-05-04 08:05:56 51°13.371 2°51.413 -999 -999 -999 -999 -999
2007-05-04 08:06:01 51°13.359 2°51.385 -999 -999 -999 -999 -999
2007-05-04 08:06:06 51°13.349 2°51.356 -999 -999 -999 -999 -999
2007-05-04 08:06:11 51°13.338 2°51.328 -999 -999 -999 -999 -999
2007-05-04 08:06:16 51°13.327 2°51.299 -999 -999 -999 -999 -999
2007-05-04 08:06:21 51°13.316 2°51.271 -999 -999 -999 -999 -999
2007-05-04 08:06:26 51°13.306 2°51.242 -999 -999 -999 -999 -999
2007-05-04 08:06:31 51°13.295 2°51.213 -999 -999 -999 -999 -999
2007-05-04 08:06:36 51°13.285 2°51.184 -999 -999 -999 -999 -999
2007-05-04 08:06:41 51°13.275 2°51.154 -999 -999 -999 -999 -999
2007-05-04 08:06:46 51°13.264 2°51.126 -999 -999 -999 -999 -999
2007-05-04 08:06:51 51°13.254 2°51.097 -999 -999 -999 -999 -999
2007-05-04 08:06:56 51°13.243 2°51.068 -999 -999 -999 -999 -999
2007-05-04 08:07:01 51°13.232 2°51.038 -999 -999 -999 -999 -999
2007-05-04 08:07:06 51°13.221 2°51.01 -999 -999 -999 -999 -999
2007-05-04 08:07:11 51°13.21 2°50.982 -999 -999 -999 -999 -999
2007-05-04 08:07:16 51°13.199 2°50.952 -999 -999 -999 -999 -999
2007-05-04 08:07:21 51°13.189 2°50.923 -999 -999 -999 -999 -999
2007-05-04 08:07:26 51°13.177 2°50.895 -999 -999 -999 -999 -999
2007-05-04 08:07:31 51°13.167 2°50.865 -999 -999 -999 -999 -999
2007-05-04 08:07:36 51°13.157 2°50.835 -999 -999 -999 -999 -999
2007-05-04 08:07:41 51°13.145 2°50.808 -999 -999 -999 -999 -999
2007-05-04 08:07:46 51°13.134 2°50.778 -999 -999 -999 -999 -999
2007-05-04 08:07:51 51°13.125 2°50.748 -999 -999 -999 -999 -999
2007-05-04 08:07:56 51°13.113 2°50.721 -999 -999 -999 -999 -999
2007-05-04 08:08:01 51°13.104 2°50.69 -999 -999 -999 -999 -999
2007-05-04 08:08:06 51°13.092 2°50.661 -999 -999 -999 -999 -999
2007-05-04 08:08:11 51°13.083 2°50.632 -999 -999 -999 -999 -999
2007-05-04 08:08:16 51°13.071 2°50.603 -999 -999 -999 -999 -999
2007-05-04 08:08:21 51°13.061 2°50.572 -999 -999 -999 -999 -999
2007-05-04 08:08:26 51°13.05 2°50.545 -999 -999 -999 -999 -999
2007-05-04 08:08:31 51°13.038 2°50.516 -999 -999 -999 -999 -999
2007-05-04 08:08:36 51°13.029 2°50.486 -999 -999 -999 -999 -999
2007-05-04 08:08:41 51°13.017 2°50.458 -999 -999 -999 -999 -999
2007-05-04 08:08:46 51°13.007 2°50.428 -999 -999 -999 -999 -999
2007-05-04 08:08:51 51°12.998 2°50.398 -999 -999 -999 -999 -999
2007-05-04 08:08:56 51°12.986 2°50.37 -999 -999 -999 -999 -999
2007-05-04 08:09:01 51°12.977 2°50.34 -999 -999 -999 -999 -999
2007-05-04 08:09:06 51°12.965 2°50.311 -999 -999 -999 -999 -999
2007-05-04 08:09:11 51°12.955 2°50.281 -999 -999 -999 -999 -999
2007-05-04 08:09:16 51°12.945 2°50.252 -999 -999 -999 -999 -999
2007-05-04 08:09:21 51°12.933 2°50.224 -999 -999 -999 -999 -999
2007-05-04 08:09:26 51°12.925 2°50.193 -999 -999 -999 -999 -999
2007-05-04 08:09:31 51°12.913 2°50.165 -999 -999 -999 -999 -999
2007-05-04 08:09:36 51°12.904 2°50.134 -999 -999 -999 -999 -999
2007-05-04 08:09:41 51°12.893 2°50.105 -999 -999 -999 -999 -999
2007-05-04 08:09:46 51°12.884 2°50.075 -999 -999 -999 -999 -999
2007-05-04 08:09:51 51°12.872 2°50.047 -999 -999 -999 -999 -999
2007-05-04 08:09:56 51°12.862 2°50.017 -999 -999 -999 -999 -999
2007-05-04 08:10:01 51°12.852 2°49.988 -999 -999 -999 -999 -999
2007-05-04 08:10:06 51°12.84 2°49.96 -999 -999 -999 -999 -999
2007-05-04 08:10:11 51°12.83 2°49.929 -999 -999 -999 -999 -999
2007-05-04 08:10:16 51°12.819 2°49.901 -999 -999 -999 -999 -999
2007-05-04 08:10:21 51°12.809 2°49.871 -999 -999 -999 -999 -999
2007-05-04 08:10:26 51°12.798 2°49.841 -999 -999 -999 -999 -999
2007-05-04 08:10:31 51°12.787 2°49.812 -999 -999 -999 -999 -999
2007-05-04 08:10:36 51°12.777 2°49.782 -999 -999 -999 -999 -999
2007-05-04 08:10:41 51°12.766 2°49.754 -999 -999 -999 -999 -999
2007-05-04 08:10:46 51°12.756 2°49.724 -999 -999 -999 -999 -999
2007-05-04 08:10:51 51°12.744 2°49.696 -999 -999 -999 -999 -999
2007-05-04 08:10:56 51°12.734 2°49.666 -999 -999 -999 -999 -999
2007-05-04 08:11:01 51°12.723 2°49.638 -999 -999 -999 -999 -999
2007-05-04 08:11:06 51°12.715 2°49.607 -999 -999 -999 -999 -999
2007-05-04 08:11:11 51°12.702 2°49.58 -999 -999 -999 -999 -999
2007-05-04 08:11:16 51°12.693 2°49.549 -999 -999 -999 -999 -999
2007-05-04 08:11:21 51°12.681 2°49.521 -999 -999 -999 -999 -999
2007-05-04 08:11:26 51°12.672 2°49.491 -999 -999 -999 -999 -999
2007-05-04 08:11:31 51°12.66 2°49.462 -999 -999 -999 -999 -999
2007-05-04 08:11:36 51°12.652 2°49.432 -999 -999 -999 -999 -999
2007-05-04 08:11:41 51°12.64 2°49.404 -999 -999 -999 -999 -999
2007-05-04 08:11:46 51°12.631 2°49.374 -999 -999 -999 -999 -999
2007-05-04 08:11:51 51°12.619 2°49.346 -999 -999 -999 -999 -999
2007-05-04 08:11:56 51°12.609 2°49.317 -999 -999 -999 -999 -999
2007-05-04 08:12:01 51°12.598 2°49.289 -999 -999 -999 -999 -999
2007-05-04 08:12:06 51°12.589 2°49.259 -999 -999 -999 -999 -999
2007-05-04 08:12:11 51°12.577 2°49.232 -999 -999 -999 -999 -999
2007-05-04 08:12:16 51°12.568 2°49.202 -999 -999 -999 -999 -999
2007-05-04 08:12:21 51°12.556 2°49.175 -999 -999 -999 -999 -999
2007-05-04 08:12:26 51°12.546 2°49.146 -999 -999 -999 -999 -999
2007-05-04 08:12:31 51°12.535 2°49.118 -999 -999 -999 -999 -999
2007-05-04 08:12:36 51°12.525 2°49.089 -999 -999 -999 -999 -999
2007-05-04 08:12:41 51°12.515 2°49.061 -999 -999 -999 -999 -999
2007-05-04 08:12:46 51°12.505 2°49.031 -999 -999 -999 -999 -999
2007-05-04 08:12:51 51°12.494 2°49.004 -999 -999 -999 -999 -999
2007-05-04 08:12:56 51°12.484 2°48.975 -999 -999 -999 -999 -999
2007-05-04 08:13:01 51°12.472 2°48.947 -999 -999 -999 -999 -999
2007-05-04 08:13:06 51°12.461 2°48.919 -999 -999 -999 -999 -999
2007-05-04 08:13:11 51°12.452 2°48.89 -999 -999 -999 -999 -999
2007-05-04 08:13:16 51°12.44 2°48.863 -999 -999 -999 -999 -999
2007-05-04 08:13:21 51°12.432 2°48.833 -999 -999 -999 -999 -999
2007-05-04 08:13:26 51°12.421 2°48.805 -999 -999 -999 -999 -999
2007-05-04 08:13:31 51°12.412 2°48.776 -999 -999 -999 -999 -999
2007-05-04 08:13:36 51°12.4 2°48.75 -999 -999 -999 -999 -999
2007-05-04 08:13:41 51°12.393 2°48.719 -999 -999 -999 -999 -999
2007-05-04 08:13:46 51°12.381 2°48.692 -999 -999 -999 -999 -999
2007-05-04 08:13:51 51°12.374 2°48.661 -999 -999 -999 -999 -999
2007-05-04 08:13:56 51°12.363 2°48.634 -999 -999 -999 -999 -999
2007-05-04 08:14:01 51°12.355 2°48.603 -999 -999 -999 -999 -999
2007-05-04 08:14:06 51°12.345 2°48.576 -999 -999 -999 -999 -999
2007-05-04 08:14:11 51°12.336 2°48.545 -999 -999 -999 -999 -999
2007-05-04 08:14:16 51°12.328 2°48.515 -999 -999 -999 -999 -999
2007-05-04 08:14:21 51°12.318 2°48.486 -999 -999 -999 -999 -999
2007-05-04 08:14:26 51°12.309 2°48.456 -999 -999 -999 -999 -999
2007-05-04 08:14:31 51°12.301 2°48.426 -999 -999 -999 -999 -999
2007-05-04 08:14:36 51°12.29 2°48.397 -999 -999 -999 -999 -999
2007-05-04 08:14:41 51°12.284 2°48.365 -999 -999 -999 -999 -999
2007-05-04 08:14:46 51°12.272 2°48.338 -999 -999 -999 -999 -999
2007-05-04 08:14:51 51°12.265 2°48.307 -999 -999 -999 -999 -999
2007-05-04 08:14:56 51°12.253 2°48.279 -999 -999 -999 -999 -999
2007-05-04 08:15:01 51°12.246 2°48.248 -999 -999 -999 -999 -999
2007-05-04 08:15:06 51°12.234 2°48.22 -999 -999 -999 -999 -999
2007-05-04 08:15:11 51°12.226 2°48.189 -999 -999 -999 -999 -999
2007-05-04 08:15:16 51°12.217 2°48.159 -999 -999 -999 -999 -999
2007-05-04 08:15:21 51°12.207 2°48.131 -999 -999 -999 -999 -999
2007-05-04 08:15:26 51°12.199 2°48.1 -999 -999 -999 -999 -999
2007-05-04 08:15:31 51°12.189 2°48.07 -999 -999 -999 -999 -999
2007-05-04 08:15:36 51°12.18 2°48.039 -999 -999 -999 -999 -999
2007-05-04 08:15:41 51°12.17 2°48.011 -999 -999 -999 -999 -999
2007-05-04 08:15:46 51°12.162 2°47.981 -999 -999 -999 -999 -999
2007-05-04 08:15:51 51°12.15 2°47.953 -999 -999 -999 -999 -999
2007-05-04 08:15:56 51°12.143 2°47.922 -999 -999 -999 -999 -999
2007-05-04 08:16:01 51°12.132 2°47.893 -999 -999 -999 -999 -999
2007-05-04 08:16:06 51°12.124 2°47.862 -999 -999 -999 -999 -999
2007-05-04 08:16:11 51°12.113 2°47.834 -999 -999 -999 -999 -999
2007-05-04 08:16:16 51°12.105 2°47.804 -999 -999 -999 -999 -999
2007-05-04 08:16:21 51°12.095 2°47.774 -999 -999 -999 -999 -999
2007-05-04 08:16:26 51°12.085 2°47.745 -999 -999 -999 -999 -999
2007-05-04 08:16:31 51°12.076 2°47.715 -999 -999 -999 -999 -999
2007-05-04 08:16:36 51°12.066 2°47.686 -999 -999 -999 -999 -999
2007-05-04 08:16:41 51°12.058 2°47.655 -999 -999 -999 -999 -999
2007-05-04 08:16:46 51°12.048 2°47.626 -999 -999 -999 -999 -999
2007-05-04 08:16:51 51°12.039 2°47.596 -999 -999 -999 -999 -999
2007-05-04 08:16:56 51°12.031 2°47.566 -999 -999 -999 -999 -999
2007-05-04 08:17:01 51°12.023 2°47.535 -999 -999 -999 -999 -999
2007-05-04 08:17:06 51°12.016 2°47.504 -999 -999 -999 -999 -999
2007-05-04 08:17:11 51°12.009 2°47.473 -999 -999 -999 -999 -999
2007-05-04 08:17:16 51°12.003 2°47.442 -999 -999 -999 -999 -999
2007-05-04 08:17:21 51°11.996 2°47.41 -999 -999 -999 -999 -999